Weather Roundup
Issued by NWS Springfield, MO

Home | Current Version | Previous Version | Text Only | Print | Product List | Glossary On
Versions: 1 2 3 4 5 6 7 8 9 10 11 12 13 14 15 16 17 18 19 20 21 22 23 24 25 26 27 28 29 30 31 32 33 34 35 36 37 38 39 40 41 42 43 44 45 46 47 48 49 50
000
NZUS99 KSGF 250959
HRRSGF

HOURLY WEATHER
NATIONAL WEATHER SERVICE SPRINGFIELD MO
400 AM CST THU DEC 25 2014

......SGF CWA......

CITY           SKY/WX    TMP DP  RH WIND       PRES   REMARKS
SPRINGFIELD    CLEAR     31  27  85 S10       29.89F WCI  22
JOPLIN         CLEAR     34  29  82 S12       29.89F WCI  25
WEST PLAINS    CLEAR     28  24  85 S5        29.96R WCI  23
ROLLA          CLEAR     31  27  85 S10       29.89F WCI  22
OSAGE BEACH    CLEAR     30  27  86 S5        29.90S WCI  25

......SURROUNDING SGF CWA......

CITY           SKY/WX    TMP DP  RH WIND       PRES   REMARKS
CHANUTE        CLEAR     32  29  88 S12       29.83F WCI  23
PARSONS        CLEAR     32  29  88 S7        29.85F WCI  26
COFFEYVILLE    CLEAR     31  28  89 S8        29.85F WCI  23
EMPORIA        PTCLDY    29  25  85 S17       29.74F WCI  17
SILOAM SPRINGS CLEAR     32  23  69 S7        29.93S WCI  26
HARRISON AR    CLEAR     30  27  88 SE12      29.94S WCI  20
NEAR YELLVILLE CLEAR     30  25  80 CALM      29.97F

......KANSAS AND MISSOURI......

CITY           SKY/WX    TMP DP  RH WIND       PRES   REMARKS
KANSAS CTY INT PTCLDY    31  27  85 S14       29.78F WCI  21
DOWNTOWN KC    CLEAR     33  27  78 S9        29.81F WCI  25
COLUMBIA       CLEAR     31  28  89 S9        29.88F WCI  23
SEDALIA        CLEAR     31  28  89 S10       29.87S WCI  22
ST JOSEPH      PTCLDY    30  27  88 S8        29.77F WCI  22
ST LOUIS       CLOUDY    39  31  72 SW9       29.94R WCI  33
SPIRIT OF STL  CLOUDY    37  30  75 SW9       29.93S WCI  30
KIRKSVILLE     CLEAR     30  28  92 S8        29.82F WCI  22
WICHITA        MOCLDY    34  24  67 S15       29.71F WCI  24
TOPEKA         CLEAR     34  27  75 S8        29.77F WCI  27
OLATHE         CLEAR     31  28  89 S10       29.80F WCI  22

......TENNESSEE......

CITY           SKY/WX    TMP DP  RH WIND       PRES   REMARKS
MEMPHIS        PTCLDY    38  33  82 SW6       30.07R WCI  33
NASHVILLE      CLOUDY    41  32  70 W9        30.04R

......ARKANSAS.......

CITY           SKY/WX    TMP DP  RH WIND       PRES   REMARKS
FAYETTEVILLE   CLEAR     31  28  89 S7        29.93F WCI  24
FT SMITH       CLEAR     30  27  88 E5        30.00R WCI  25
LITTLE ROCK    CLEAR     33  29  85 CALM      30.07S

......OKLAHOMA.......

CITY           SKY/WX    TMP DP  RH WIND       PRES   REMARKS
TULSA          PTCLDY    34  28  79 S12       29.86F WCI  25
PONCA CITY     MOCLDY    36  24  62 S10       29.77F WCI  28
MCALESTER      CLEAR     37  28  70 S7        29.94F WCI  32
OKLAHOMA CITY  PTCLDY    33  25  72 S12       29.82F WCI  24

......IOWA............

CITY           SKY/WX    TMP DP  RH WIND       PRES   REMARKS
DES MOINES     CLEAR     31  27  85 S12       29.73F WCI  22
QUAD CITIES    CLOUDY    33  28  81 SW13      29.81S WCI  24

......ILLINOIS........

CITY           SKY/WX    TMP DP  RH WIND       PRES   REMARKS
QUINCY         CLOUDY    34  28  79 SW10      29.87S WCI  26
CHICAGO        CLOUDY    35  29  78 W13       29.77R WCI  26



USA.gov is the U.S. government's official web portal to all federal, state and local government web resources and services.